NOAA 16 DEB, 41422

Orbit data source: Space-Track

NOAA 16 DEB, 41422 is space debris in SSO originally from a launch on Thu, 21 Sep 2000 UTC launched from the Air Force Western Test Range (AFWTR). Debris objects in space refer to the collection of defunct objects orbiting the Earth. Examples of debris include non-operational satellites, rocket bodies, and fragments generated from explosions, collisions, or faulty payload assembly.

Loading next visibility...
Identifier
41422, 2000-055LB
Orbit
SSO
Country
Flag of USUS
Related business
Manufacturer
Unknown
Mission
Spacecraft
Bus & Motor
Unknown
Mass
Unknown
Launch date (UTC)
2000-09-21 (26 years ago)
Launch vehicle
Unknown
Launch site
Air Force Western Test Range (AFWTR)
Object type
Payload
Rocket body
Debris
Shape & HBR
Unknown shape, 0.1 m
Radar Cross Section
Medium (>0.1 m² and <1 m²)

Expand to show TLE details & history
Last TLE update: 9 hours ago

TLE from 9 hours ago
0 NOAA 16 DEB
1 41422U 00055LB  26237.68092255  .00002408  00000-0  98765-3 0  9992
2 41422  98.7061 315.2193 0012085 342.4030  17.6731 14.28007878544139
Epoch: 2026-08-25T16:20Z
TLE epoch observation values (Epoch: 2026-08-25T16:20:31.708Z)
Latitude
0.00002°
Longitude
96.14239°
Altitude
793.059 km
Speed
7.461 km/s
True Right ascension
21h 00m 52s
True Declination
0° 00' 00"
Sunlit
Object was in full shadow at epoch
Visualization orbit readout
Latitude
Unknown
Longitude
Unknown
Altitude
Unknown
Speed
Unknown
Apparent Right ascension
Unknown
Apparent Declination
Unknown
Sunlit
N/A
Visualization observer readout
Local Sidereal Time
16:19:28
Azimuth
Unknown
Elevation
Unknown
Doppler factor
Unknown
Orbital elements
Apogee altitude
804.215 km
Perigee altitude
786.876 km
Semi-major axis
7,173.682 km
Eccentricity
0.00121
Inclination
98.7061°
RAAN
315.2193°
Arg. of periapsis
342.403°
True anomaly
17.7152°
Mean anomaly
17.6731°
Eccentric anomaly
17.69415°
Mean motion
3.57215 °/min
Orbital period
100.78 mins
BSTAR
0.00098765
Loading maneuver chart data...
Computing Atmospheric mass density...
Loading historical data...
Loading historical data...
Loading historical data...
Loading historical data...
Loading historical data...
Loading historical data...
Loading historical data...

Documentation

Showing up to 5 results
|